START_TIME,STEP,MOV.,H8,t_acc.,H43,t_acc.,M25,t_acc.,H9,t_acc.
1979-03-01 00:00:18.950 ,3,0,0.,12.0,0.,12.0,0.,12.0,0.,12.0
1979-03-01 00:00:30.950 ,3,0,0.,12.0,0.,12.0,0.,12.0,0.,12.0
1979-03-01 00:00:42.950 ,4,0,0.,12.0,0.,12.0,0.,12.0,0.,12.0
1979-03-01 00:00:54.950 ,4,0,0.,12.0,0.,12.0,0.,12.0,0.,12.0
1979-03-01 00:01:06.950 ,5,0,0.,12.0,0.,12.0,0.,12.0,0.,12.0
1979-03-01 00:01:18.950 ,5,0,0.,12.0,0.,12.0,0.,12.0,0.,12.0
1979-03-01 00:01:30.950 ,6,0,0.,12.0,0.,12.0,0.,12.0,0.,12.0
1979-03-01 00:01:42.950 ,6,0,0.,12.0,0.,12.0,0.,12.0,0.,12.0
1979-03-01 00:01:54.950 ,7,0,0.,12.0,0.,12.0,0.,12.0,0.,12.0
1979-03-01 00:02:06.950 ,7,0,0.,12.0,0.,12.0,0.,12.0,0.,12.0
1979-03-01 00:02:18.950 ,7,0,0.,12.0,0.,12.0,0.,12.0,0.,12.0
1979-03-01 00:02:30.950 ,7,0,0.,12.0,0.,12.0,0.,12.0,0.,12.0
1979-03-01 00:02:42.950 ,6,0,0.,12.0,0.,12.0,0.,12.0,0.,12.0
1979-03-01 00:02:54.950 ,6,0,0.,12.0,0.,12.0,0.,12.0,0.,12.0
1979-03-01 00:03:06.950 ,5,0,0.,12.0,0.,12.0,0.,12.0,0.,12.0
1979-03-01 00:03:18.950 ,5,0,0.,12.0,0.,12.0,0.,12.0,0.,12.0
1979-03-01 00:03:30.950 ,4,0,0.,12.0,0.,12.0,0.,12.0,0.,12.0
1979-03-01 00:03:42.950 ,4,0,0.,12.0,0.,12.0,0.,12.0,0.,12.0
1979-03-01 00:03:54.950 ,3,0,0.,12.0,0.,12.0,0.,12.0,0.,12.0
1979-03-01 00:04:06.950 ,3,0,0.,12.0,0.,12.0,0.,12.0,0.,12.0
1979-03-01 00:04:18.950 ,2,0,0.,12.0,0.,12.0,0.,12.0,0.,12.0
1979-03-01 00:04:30.950 ,2,0,0.,12.0,0.,12.0,0.,12.0,0.,12.0
1979-03-01 00:04:42.950 ,1,0,0.,12.0,0.,12.0,0.,12.0,0.,12.0
1979-03-01 00:04:54.950 ,1,0,0.,12.0,0.,12.0,0.,12.0,0.,12.0
1979-03-01 00:05:06.950 ,0,0,0.,12.0,0.,12.0,0.,12.0,0.,12.0
1979-03-01 00:05:18.950 ,0,0,0.,12.0,0.,12.0,0.,12.0,0.,12.0
1979-03-01 00:05:30.950 ,0,0,0.,12.0,0.,12.0,0.,12.0,0.,12.0
1979-03-01 00:05:42.950 ,0,0,0.,12.0,0.,12.0,0.,12.0,0.,12.0
1979-03-01 00:05:54.950 ,1,0,0.,12.0,0.,12.0,0.,12.0,0.,12.0
1979-03-01 00:06:06.950 ,1,0,0.,12.0,0.,12.0,0.,12.0,0.,12.0
1979-03-01 00:06:18.950 ,2,0,0.,12.0,0.,12.0,0.,12.0,0.,12.0
1979-03-01 00:06:30.950 ,2,0,0.,12.0,0.,12.0,0.,12.0,0.,12.0
1979-03-01 00:06:42.950 ,3,0,0.,12.0,0.,12.0,0.,12.0,0.,12.0
1979-03-01 00:06:54.950 ,3,0,0.,12.0,0.,12.0,0.,12.0,0.,12.0
1979-03-01 00:07:06.950 ,4,0,0.,12.0,0.,12.0,0.,12.0,0.,12.0
1979-03-01 00:07:18.950 ,4,0,0.,12.0,0.,12.0,0.,12.0,0.,12.0
1979-03-01 00:07:30.950 ,5,0,0.,12.0,0.,12.0,0.,12.0,0.,12.0
1979-03-01 00:07:42.950 ,5,0,0.,12.0,0.,12.0,0.,12.0,0.,12.0
1979-03-01 00:07:54.950 ,6,0,0.,12.0,0.,12.0,0.,12.0,0.,12.0
1979-03-01 00:08:06.950 ,6,0,0.,12.0,0.,12.0,0.,12.0,0.,12.0
1979-03-01 00:08:18.950 ,7,0,0.,12.0,0.,12.0,0.,12.0,0.,12.0
1979-03-01 00:08:30.950 ,7,0,0.,12.0,0.,12.0,0.,12.0,0.,12.0
1979-03-01 00:08:42.950 ,7,0,0.,12.0,0.,12.0,0.,12.0,0.,12.0
1979-03-01 00:08:54.950 ,7,0,0.,12.0,0.,12.0,0.,12.0,0.,12.0
1979-03-01 00:09:06.950 ,6,0,0.,12.0,0.,12.0,0.,12.0,0.,12.0
1979-03-01 00:09:18.950 ,6,0,0.,12.0,0.,12.0,0.,12.0,0.,12.0
1979-03-01 00:09:30.950 ,5,0,0.,12.0,0.,12.0,0.,12.0,0.,12.0
1979-03-01 00:09:42.950 ,5,0,0.,12.0,0.,12.0,0.,12.0,0.,12.0
1979-03-01 00:09:54.950 ,4,0,0.,12.0,0.,12.0,0.,12.0,0.,12.0
1979-03-01 00:10:06.950 ,4,0,0.,12.0,0.,12.0,0.,12.0,0.,12.0
1979-03-01 00:10:18.950 ,3,0,0.,12.0,0.,12.0,0.,12.0,0.,12.0
1979-03-01 00:10:30.950 ,3,0,0.,12.0,0.,12.0,0.,12.0,0.,12.0
1979-03-01 00:10:42.950 ,2,0,0.,12.0,0.,12.0,0.,12.0,0.,12.0
1979-03-01 00:10:54.950 ,2,0,0.,12.0,0.,12.0,0.,12.0,0.,12.0
1979-03-01 00:11:06.950 ,1,0,0.,12.0,0.,12.0,0.,12.0,0.,12.0
1979-03-01 00:11:18.950 ,1,0,0.,12.0,0.,12.0,0.,12.0,0.,12.0
1979-03-01 00:11:30.950 ,0,0,1.,12.0,0.,12.0,0.,12.0,0.,12.0
1979-03-01 00:11:42.950 ,0,0,1.,12.0,0.,12.0,0.,12.0,0.,12.0
1979-03-01 00:11:54.950 ,0,0,0.,12.0,0.,12.0,0.,12.0,0.,12.0
1979-03-01 00:12:06.950 ,0,0,0.,12.0,0.,12.0,0.,12.0,0.,12.0
1979-03-01 00:12:18.950 ,1,0,0.,12.0,0.,12.0,0.,12.0,0.,12.0
1979-03-01 00:12:30.950 ,1,0,0.,12.0,0.,12.0,0.,12.0,0.,12.0
1979-03-01 00:12:42.950 ,2,0,0.,12.0,0.,12.0,0.,12.0,0.,12.0
1979-03-01 00:12:54.950 ,2,0,0.,12.0,0.,12.0,0.,12.0,0.,12.0
1979-03-01 00:13:06.950 ,3,0,0.,12.0,0.,12.0,0.,12.0,0.,12.0
1979-03-01 00:13:18.950 ,3,0,0.,12.0,0.,12.0,0.,12.0,0.,12.0
1979-03-01 00:13:30.950 ,4,0,0.,12.0,0.,12.0,0.,12.0,0.,12.0
1979-03-01 00:13:42.950 ,4,0,0.,12.0,0.,12.0,0.,12.0,0.,12.0
1979-03-01 00:13:54.950 ,5,0,0.,12.0,0.,12.0,0.,12.0,0.,12.0
1979-03-01 00:14:06.950 ,5,0,0.,12.0,0.,12.0,0.,12.0,0.,12.0
1979-03-01 00:14:18.950 ,6,0,0.,12.0,0.,12.0,0.,12.0,0.,12.0
1979-03-01 00:14:30.950 ,6,0,0.,12.0,0.,12.0,0.,12.0,0.,12.0
1979-03-01 00:14:42.950 ,7,0,0.,12.0,0.,12.0,0.,12.0,0.,12.0
1979-03-01 00:14:54.950 ,7,0,0.,12.0,0.,12.0,0.,12.0,0.,12.0
1979-03-01 00:15:06.950 ,7,0,0.,12.0,0.,12.0,0.,12.0,0.,12.0
1979-03-01 00:15:18.950 ,7,0,0.,12.0,0.,12.0,0.,12.0,0.,12.0
1979-03-01 00:15:30.950 ,6,0,0.,12.0,0.,12.0,0.,12.0,0.,12.0
1979-03-01 00:15:42.950 ,6,0,0.,12.0,0.,12.0,0.,12.0,0.,12.0
1979-03-01 00:15:54.950 ,5,0,0.,12.0,0.,12.0,0.,12.0,0.,12.0
1979-03-01 00:16:06.950 ,5,0,0.,12.0,0.,12.0,0.,12.0,0.,12.0
1979-03-01 00:16:18.950 ,4,0,0.,12.0,0.,12.0,0.,12.0,0.,12.0
1979-03-01 00:16:30.950 ,4,0,0.,12.0,0.,12.0,0.,12.0,0.,12.0
1979-03-01 00:16:42.950 ,3,0,0.,12.0,0.,12.0,0.,12.0,0.,12.0
1979-03-01 00:16:54.950 ,3,0,0.,12.0,0.,12.0,0.,12.0,0.,12.0
1979-03-01 00:17:06.950 ,2,0,0.,12.0,0.,12.0,0.,12.0,0.,12.0
1979-03-01 00:17:18.950 ,2,0,0.,12.0,0.,12.0,0.,12.0,0.,12.0
1979-03-01 00:17:30.950 ,1,0,0.,12.0,0.,12.0,0.,12.0,0.,12.0
1979-03-01 00:17:42.950 ,1,0,0.,12.0,0.,12.0,0.,12.0,0.,12.0
1979-03-01 00:17:54.950 ,0,0,0.,12.0,0.,12.0,0.,12.0,0.,12.0
1979-03-01 00:18:06.950 ,0,0,1.,12.0,0.,12.0,0.,12.0,0.,12.0
1979-03-01 00:18:18.950 ,0,0,0.,12.0,0.,12.0,0.,12.0,0.,12.0
1979-03-01 00:18:30.950 ,0,0,0.,12.0,0.,12.0,0.,12.0,0.,12.0
1979-03-01 00:18:42.950 ,1,0,0.,12.0,0.,12.0,0.,12.0,0.,12.0
1979-03-01 00:18:54.950 ,1,0,0.,12.0,0.,12.0,0.,12.0,0.,12.0
1979-03-01 00:19:06.950 ,2,0,0.,12.0,0.,12.0,0.,12.0,0.,12.0
1979-03-01 00:19:18.950 ,2,0,0.,12.0,0.,12.0,0.,12.0,0.,12.0
1979-03-01 00:19:30.950 ,3,0,0.,12.0,0.,12.0,0.,12.0,0.,12.0
1979-03-01 00:19:42.950 ,3,0,0.,12.0,0.,12.0,0.,12.0,0.,12.0
1979-03-01 00:19:54.950 ,4,0,0.,12.0,0.,12.0,0.,12.0,0.,12.0
1979-03-01 00:20:06.950 ,4,0,0.,12.0,0.,12.0,0.,12.0,0.,12.0
1979-03-01 00:20:18.950 ,0,0,0.,12.0,0.,12.0,0.,12.0,0.,12.0
1979-03-01 00:20:30.950 ,0,0,0.,12.0,0.,12.0,0.,12.0,0.,12.0
1979-03-01 00:20:42.950 ,0,0,0.,12.0,0.,12.0,0.,12.0,0.,12.0
1979-03-01 00:20:54.950 ,0,0,0.,12.0,0.,12.0,0.,12.0,0.,12.0
1979-03-01 00:21:06.950 ,7,0,0.,12.0,0.,12.0,0.,12.0,0.,12.0
1979-03-01 00:21:18.950 ,7,0,0.,12.0,0.,12.0,0.,12.0,0.,12.0
1979-03-01 00:21:30.950 ,7,0,0.,12.0,0.,12.0,0.,12.0,0.,12.0
1979-03-01 00:21:42.950 ,7,0,0.,12.0,0.,12.0,0.,12.0,0.,12.0
1979-03-01 00:21:54.950 ,6,0,0.,12.0,0.,12.0,0.,12.0,0.,12.0
1979-03-01 00:22:06.950 ,6,0,0.,12.0,0.,12.0,0.,12.0,0.,12.0
1979-03-01 00:22:18.950 ,5,0,0.,12.0,0.,12.0,0.,12.0,0.,12.0
1979-03-01 00:22:30.950 ,5,0,0.,12.0,0.,12.0,0.,12.0,0.,12.0
1979-03-01 00:22:42.950 ,4,0,0.,12.0,0.,12.0,0.,12.0,0.,12.0
1979-03-01 00:22:54.950 ,4,0,0.,12.0,0.,12.0,0.,12.0,0.,12.0
1979-03-01 00:23:06.950 ,3,0,0.,12.0,0.,12.0,0.,12.0,0.,12.0
1979-03-01 00:23:18.950 ,3,0,0.,12.0,0.,12.0,0.,12.0,0.,12.0
1979-03-01 00:23:30.950 ,2,0,0.,12.0,0.,12.0,0.,12.0,0.,12.0
1979-03-01 00:23:42.950 ,2,0,0.,12.0,0.,12.0,0.,12.0,0.,12.0
1979-03-01 00:23:54.950 ,1,0,0.,12.0,0.,12.0,0.,12.0,0.,12.0
1979-03-01 00:24:06.950 ,1,0,0.,12.0,0.,12.0,0.,12.0,0.,12.0
1979-03-01 00:24:18.950 ,0,0,0.,12.0,0.,12.0,0.,12.0,0.,12.0
1979-03-01 00:24:30.950 ,0,0,0.,12.0,0.,12.0,0.,12.0,0.,12.0
1979-03-01 00:24:42.950 ,0,0,0.,12.0,0.,12.0,0.,12.0,0.,12.0
1979-03-01 00:24:54.950 ,0,0,0.,12.0,0.,12.0,0.,12.0,0.,12.0
1979-03-01 00:25:06.950 ,1,0,0.,12.0,0.,12.0,0.,12.0,0.,12.0
1979-03-01 00:25:18.950 ,1,0,0.,12.0,0.,12.0,0.,12.0,0.,12.0
1979-03-01 00:25:30.950 ,2,0,0.,12.0,0.,12.0,0.,12.0,0.,12.0
1979-03-01 00:25:42.950 ,2,0,0.,12.0,0.,12.0,0.,12.0,0.,12.0
1979-03-01 00:25:54.950 ,3,0,0.,12.0,0.,12.0,0.,12.0,0.,12.0
1979-03-01 00:26:06.950 ,3,0,0.,12.0,0.,12.0,0.,12.0,0.,12.0
1979-03-01 00:26:18.950 ,4,0,0.,12.0,0.,12.0,0.,12.0,0.,12.0
1979-03-01 00:26:30.950 ,4,0,0.,12.0,0.,12.0,0.,12.0,0.,12.0
1979-03-01 00:26:42.950 ,5,0,0.,12.0,0.,12.0,0.,12.0,0.,12.0
1979-03-01 00:26:54.950 ,5,0,0.,12.0,0.,12.0,0.,12.0,0.,12.0
1979-03-01 00:27:06.950 ,6,0,0.,12.0,0.,12.0,0.,12.0,0.,12.0
1979-03-01 00:27:18.950 ,6,0,0.,12.0,0.,12.0,0.,12.0,0.,12.0
1979-03-01 00:27:30.950 ,7,0,0.,12.0,0.,12.0,0.,12.0,0.,12.0
1979-03-01 00:27:42.950 ,7,0,0.,12.0,0.,12.0,0.,12.0,0.,12.0
1979-03-01 00:27:54.950 ,7,0,0.,12.0,0.,12.0,0.,12.0,0.,12.0
1979-03-01 00:28:06.950 ,7,0,0.,12.0,0.,12.0,0.,12.0,0.,12.0
1979-03-01 00:28:18.950 ,6,0,0.,12.0,0.,12.0,0.,12.0,0.,12.0
1979-03-01 00:28:30.950 ,6,0,0.,12.0,0.,12.0,0.,12.0,0.,12.0
1979-03-01 00:28:42.950 ,5,0,0.,12.0,0.,12.0,0.,12.0,0.,12.0
1979-03-01 00:28:54.950 ,5,0,0.,12.0,0.,12.0,0.,12.0,0.,12.0
1979-03-01 00:29:06.950 ,4,0,0.,12.0,0.,12.0,0.,12.0,0.,12.0
1979-03-01 00:29:18.950 ,4,0,0.,12.0,0.,12.0,0.,12.0,0.,12.0
1979-03-01 00:29:30.950 ,3,0,0.,12.0,0.,12.0,0.,12.0,0.,12.0
1979-03-01 00:29:42.950 ,3,0,0.,12.0,0.,12.0,0.,12.0,0.,12.0
1979-03-01 00:29:54.950 ,2,0,0.,12.0,0.,12.0,0.,12.0,0.,12.0
1979-03-01 00:30:06.950 ,2,0,0.,12.0,0.,12.0,0.,12.0,0.,12.0
1979-03-01 00:30:18.950 ,1,0,0.,12.0,0.,12.0,0.,12.0,0.,12.0
1979-03-01 00:30:30.950 ,1,0,0.,12.0,0.,12.0,0.,12.0,0.,12.0
1979-03-01 00:30:42.950 ,0,0,0.,12.0,0.,12.0,0.,12.0,0.,12.0
1979-03-01 00:30:54.950 ,0,0,0.,12.0,0.,12.0,0.,12.0,0.,12.0
1979-03-01 00:31:54.950 ,0,0,0.,12.0,0.,12.0,0.,12.0,0.,12.0
1979-03-01 00:32:06.950 ,0,0,0.,12.0,0.,12.0,0.,12.0,0.,12.0
1979-03-01 00:32:18.950 ,3,0,0.,12.0,0.,12.0,0.,12.0,0.,12.0
1979-03-01 00:32:30.950 ,3,0,0.,12.0,0.,12.0,0.,12.0,0.,12.0
1979-03-01 00:32:42.950 ,4,0,0.,12.0,0.,12.0,0.,12.0,0.,12.0
1979-03-01 00:32:54.950 ,4,0,0.,12.0,0.,12.0,0.,12.0,0.,12.0
1979-03-01 00:33:06.950 ,5,0,0.,12.0,0.,12.0,0.,12.0,0.,12.0
1979-03-01 00:33:18.950 ,5,0,0.,12.0,0.,12.0,0.,12.0,0.,12.0
1979-03-01 00:33:30.950 ,6,0,0.,12.0,0.,12.0,0.,12.0,0.,12.0
1979-03-01 00:33:42.950 ,6,0,0.,12.0,0.,12.0,0.,12.0,0.,12.0
1979-03-01 00:33:54.950 ,7,0,0.,12.0,0.,12.0,0.,12.0,0.,12.0
1979-03-01 00:34:06.950 ,7,0,0.,12.0,0.,12.0,0.,12.0,0.,12.0
1979-03-01 00:34:18.950 ,7,0,0.,12.0,0.,12.0,0.,12.0,0.,12.0
1979-03-01 00:34:30.950 ,7,0,0.,12.0,0.,12.0,0.,12.0,0.,12.0
1979-03-01 00:34:42.950 ,6,0,0.,12.0,0.,12.0,0.,12.0,0.,12.0
1979-03-01 00:34:54.950 ,6,0,0.,12.0,0.,12.0,0.,12.0,0.,12.0
1979-03-01 00:35:06.950 ,5,0,0.,12.0,0.,12.0,0.,12.0,0.,12.0
1979-03-01 00:35:18.950 ,5,0,0.,12.0,0.,12.0,0.,12.0,0.,12.0
1979-03-01 00:35:30.950 ,4,0,0.,12.0,0.,12.0,0.,12.0,0.,12.0
1979-03-01 00:35:42.950 ,4,0,0.,12.0,0.,12.0,0.,12.0,0.,12.0
1979-03-01 00:35:54.950 ,3,0,0.,12.0,0.,12.0,0.,12.0,0.,12.0
1979-03-01 00:36:06.950 ,3,0,0.,12.0,0.,12.0,0.,12.0,0.,12.0
1979-03-01 00:36:18.950 ,2,0,0.,12.0,0.,12.0,0.,12.0,0.,12.0
1979-03-01 00:36:30.950 ,2,0,0.,12.0,0.,12.0,0.,12.0,0.,12.0
1979-03-01 00:36:42.950 ,1,0,0.,12.0,0.,12.0,0.,12.0,0.,12.0
1979-03-01 00:36:54.950 ,1,0,0.,12.0,0.,12.0,0.,12.0,0.,12.0
1979-03-01 00:37:06.950 ,0,0,0.,12.0,0.,12.0,0.,12.0,0.,12.0
1979-03-01 00:37:18.950 ,0,0,0.,12.0,0.,12.0,0.,12.0,0.,12.0
1979-03-01 00:37:30.950 ,0,0,0.,12.0,0.,12.0,0.,12.0,0.,12.0
1979-03-01 00:37:42.950 ,0,0,0.,12.0,0.,12.0,0.,12.0,0.,12.0
1979-03-01 00:37:54.950 ,1,0,0.,12.0,0.,12.0,0.,12.0,0.,12.0
1979-03-01 00:38:06.950 ,1,0,0.,12.0,0.,12.0,0.,12.0,0.,12.0
1979-03-01 00:39:06.950 ,0,0,0.,12.0,0.,12.0,0.,12.0,0.,12.0
1979-03-01 00:39:18.950 ,0,0,0.,12.0,0.,12.0,0.,12.0,0.,12.0
1979-03-01 00:39:30.950 ,5,0,0.,12.0,0.,12.0,0.,12.0,0.,12.0
1979-03-01 00:39:42.950 ,5,0,0.,12.0,0.,12.0,0.,12.0,0.,12.0
1979-03-01 00:39:54.950 ,6,0,0.,12.0,0.,12.0,0.,12.0,0.,12.0
1979-03-01 00:40:06.950 ,6,0,0.,12.0,0.,12.0,0.,12.0,0.,12.0
1979-03-01 00:40:18.950 ,7,0,0.,12.0,0.,12.0,0.,12.0,0.,12.0
1979-03-01 00:40:30.950 ,7,0,0.,12.0,0.,12.0,0.,12.0,0.,12.0
1979-03-01 00:40:42.950 ,7,0,0.,12.0,0.,12.0,0.,12.0,0.,12.0
1979-03-01 00:40:54.950 ,7,0,0.,12.0,0.,12.0,0.,12.0,0.,12.0
1979-03-01 00:41:06.950 ,6,0,0.,12.0,0.,12.0,0.,12.0,0.,12.0
1979-03-01 00:41:18.950 ,6,0,0.,12.0,0.,12.0,0.,12.0,0.,12.0
1979-03-01 00:41:30.950 ,5,0,0.,12.0,0.,12.0,0.,12.0,0.,12.0
1979-03-01 00:41:42.950 ,5,0,0.,12.0,0.,12.0,0.,12.0,0.,12.0
1979-03-01 00:41:54.950 ,4,0,0.,12.0,0.,12.0,0.,12.0,0.,12.0
1979-03-01 00:42:06.950 ,4,0,0.,12.0,0.,12.0,0.,12.0,0.,12.0
1979-03-01 00:42:18.950 ,3,0,0.,12.0,0.,12.0,0.,12.0,0.,12.0
1979-03-01 00:42:30.950 ,3,0,0.,12.0,0.,12.0,0.,12.0,0.,12.0
1979-03-01 00:42:42.950 ,2,0,0.,12.0,0.,12.0,0.,12.0,0.,12.0
1979-03-01 00:42:54.950 ,2,0,0.,12.0,0.,12.0,0.,12.0,0.,12.0
1979-03-01 00:43:06.950 ,1,0,0.,12.0,0.,12.0,0.,12.0,0.,12.0
1979-03-01 00:43:18.950 ,1,0,0.,12.0,0.,12.0,0.,12.0,0.,12.0
1979-03-01 00:43:30.950 ,0,0,0.,12.0,0.,12.0,0.,12.0,0.,12.0
1979-03-01 00:43:42.950 ,0,0,0.,12.0,0.,12.0,0.,12.0,0.,12.0
1979-03-01 00:43:54.950 ,0,0,0.,12.0,0.,12.0,0.,12.0,0.,12.0
1979-03-01 00:44:06.950 ,0,0,0.,12.0,0.,12.0,0.,12.0,0.,12.0
1979-03-01 00:44:18.950 ,1,0,0.,12.0,0.,12.0,0.,12.0,0.,12.0
1979-03-01 00:44:30.950 ,1,0,0.,12.0,0.,12.0,0.,12.0,0.,12.0
1979-03-01 00:44:42.950 ,2,0,0.,12.0,0.,12.0,0.,12.0,0.,12.0
1979-03-01 00:44:54.950 ,2,0,0.,12.0,0.,12.0,0.,12.0,0.,12.0
1979-03-01 00:45:06.950 ,3,0,0.,12.0,0.,12.0,0.,12.0,0.,12.0
1979-03-01 00:45:18.950 ,3,0,0.,12.0,0.,12.0,0.,12.0,0.,12.0
1979-03-01 00:45:30.950 ,4,0,0.,12.0,0.,12.0,0.,12.0,0.,12.0
1979-03-01 00:45:42.950 ,4,0,0.,12.0,0.,12.0,0.,12.0,0.,12.0
1979-03-01 00:45:54.950 ,5,0,0.,12.0,0.,12.0,0.,12.0,0.,12.0
1979-03-01 00:46:06.950 ,5,0,0.,12.0,0.,12.0,0.,12.0,0.,12.0
1979-03-01 00:46:18.950 ,6,0,0.,12.0,0.,12.0,0.,12.0,0.,12.0
1979-03-01 00:46:30.950 ,6,0,0.,12.0,0.,12.0,0.,12.0,0.,12.0
1979-03-01 00:46:42.950 ,7,0,0.,12.0,0.,12.0,0.,12.0,0.,12.0
1979-03-01 00:46:54.950 ,7,0,0.,12.0,0.,12.0,0.,12.0,0.,12.0
1979-03-01 00:47:06.950 ,7,0,0.,12.0,0.,12.0,0.,12.0,0.,12.0
1979-03-01 00:47:18.950 ,7,0,0.,12.0,0.,12.0,0.,12.0,0.,12.0
1979-03-01 00:47:30.950 ,6,0,0.,12.0,0.,12.0,0.,12.0,0.,12.0
1979-03-01 00:47:42.950 ,6,0,0.,12.0,0.,12.0,0.,12.0,0.,12.0
1979-03-01 00:47:54.950 ,5,0,0.,12.0,0.,12.0,0.,12.0,0.,12.0
1979-03-01 00:48:06.950 ,5,0,0.,12.0,0.,12.0,0.,12.0,0.,12.0
1979-03-01 00:48:18.950 ,4,0,0.,12.0,0.,12.0,0.,12.0,0.,12.0
1979-03-01 00:48:30.950 ,4,0,0.,12.0,0.,12.0,0.,12.0,0.,12.0
1979-03-01 00:48:42.950 ,3,0,0.,12.0,0.,12.0,0.,12.0,0.,12.0
1979-03-01 00:48:54.950 ,3,0,0.,12.0,0.,12.0,0.,12.0,0.,12.0
1979-03-01 00:49:06.950 ,2,0,0.,12.0,0.,12.0,0.,12.0,0.,12.0
1979-03-01 00:49:18.950 ,2,0,0.,12.0,0.,12.0,0.,12.0,0.,12.0
1979-03-01 00:49:30.950 ,1,0,0.,12.0,0.,12.0,0.,12.0,0.,12.0
1979-03-01 00:49:42.950 ,1,0,0.,12.0,0.,12.0,0.,12.0,0.,12.0
1979-03-01 00:49:54.950 ,0,0,0.,12.0,0.,12.0,0.,12.0,0.,12.0
1979-03-01 00:50:06.950 ,0,0,0.,12.0,0.,12.0,0.,12.0,0.,12.0
1979-03-01 00:50:18.950 ,0,0,0.,12.0,0.,12.0,0.,12.0,0.,12.0
1979-03-01 00:50:30.950 ,0,0,0.,12.0,0.,12.0,0.,12.0,0.,12.0
1979-03-01 00:50:42.950 ,1,0,0.,12.0,0.,12.0,0.,12.0,0.,12.0
1979-03-01 00:50:54.950 ,1,0,0.,12.0,0.,12.0,0.,12.0,0.,12.0
1979-03-01 00:51:06.950 ,2,0,0.,12.0,0.,12.0,0.,12.0,0.,12.0
1979-03-01 00:51:18.950 ,2,0,0.,12.0,0.,12.0,0.,12.0,0.,12.0
1979-03-01 00:51:30.950 ,3,0,0.,12.0,0.,12.0,0.,12.0,0.,12.0
1979-03-01 00:51:42.950 ,3,0,0.,12.0,0.,12.0,0.,12.0,0.,12.0
1979-03-01 00:51:54.950 ,4,0,0.,12.0,0.,12.0,0.,12.0,0.,12.0
1979-03-01 00:52:06.950 ,4,0,0.,12.0,0.,12.0,0.,12.0,0.,12.0
1979-03-01 00:52:18.950 ,5,0,0.,12.0,0.,12.0,0.,12.0,0.,12.0
1979-03-01 00:52:30.950 ,5,0,0.,12.0,0.,12.0,0.,12.0,0.,12.0
1979-03-01 00:52:42.950 ,6,0,0.,12.0,0.,12.0,0.,12.0,0.,12.0
1979-03-01 00:52:54.950 ,6,0,0.,12.0,0.,12.0,0.,12.0,0.,12.0
1979-03-01 00:53:06.950 ,7,0,0.,12.0,0.,12.0,0.,12.0,0.,12.0
1979-03-01 00:53:18.950 ,7,0,0.,12.0,0.,12.0,0.,12.0,0.,12.0
1979-03-01 00:53:30.950 ,7,0,0.,12.0,0.,12.0,0.,12.0,0.,12.0
1979-03-01 00:53:42.950 ,7,0,0.,12.0,0.,12.0,0.,12.0,0.,12.0
1979-03-01 00:53:54.950 ,6,0,0.,12.0,0.,12.0,0.,12.0,0.,12.0
1979-03-01 00:54:06.950 ,6,0,0.,12.0,0.,12.0,0.,12.0,0.,12.0
1979-03-01 00:54:18.950 ,5,0,0.,12.0,0.,12.0,0.,12.0,0.,12.0
1979-03-01 00:54:30.950 ,5,0,0.,12.0,0.,12.0,0.,12.0,0.,12.0
1979-03-01 00:54:42.950 ,4,0,0.,12.0,0.,12.0,0.,12.0,0.,12.0
1979-03-01 00:54:54.950 ,4,0,0.,12.0,0.,12.0,0.,12.0,0.,12.0
1979-03-01 00:55:06.950 ,3,0,0.,12.0,0.,12.0,0.,12.0,0.,12.0
1979-03-01 00:55:18.950 ,3,0,0.,12.0,0.,12.0,0.,12.0,0.,12.0
1979-03-01 00:55:30.950 ,2,0,0.,12.0,0.,12.0,0.,12.0,0.,12.0
1979-03-01 00:55:42.950 ,2,0,0.,12.0,0.,12.0,0.,12.0,0.,12.0
1979-03-01 00:55:54.950 ,1,0,0.,12.0,0.,12.0,0.,12.0,0.,12.0
1979-03-01 00:56:06.950 ,1,0,0.,12.0,0.,12.0,0.,12.0,0.,12.0
1979-03-01 00:56:18.950 ,0,0,0.,12.0,0.,12.0,0.,12.0,0.,12.0
1979-03-01 00:56:30.950 ,0,0,0.,12.0,0.,12.0,0.,12.0,0.,12.0
1979-03-01 00:56:42.950 ,0,0,0.,12.0,0.,12.0,0.,12.0,0.,12.0
1979-03-01 00:56:54.950 ,0,0,0.,12.0,0.,12.0,0.,12.0,0.,12.0
1979-03-01 00:57:06.950 ,1,0,0.,12.0,0.,12.0,0.,12.0,0.,12.0
1979-03-01 00:57:18.950 ,1,0,0.,12.0,0.,12.0,0.,12.0,0.,12.0
1979-03-01 00:57:30.950 ,2,0,0.,12.0,0.,12.0,0.,12.0,0.,12.0
1979-03-01 00:57:42.950 ,2,0,0.,12.0,0.,12.0,0.,12.0,0.,12.0
1979-03-01 00:57:54.950 ,3,0,0.,12.0,0.,12.0,0.,12.0,0.,12.0
1979-03-01 00:58:06.950 ,3,0,0.,12.0,0.,12.0,0.,12.0,0.,12.0
1979-03-01 00:58:18.950 ,4,0,0.,12.0,0.,12.0,0.,12.0,0.,12.0
1979-03-01 00:58:30.950 ,4,0,0.,12.0,0.,12.0,0.,12.0,0.,12.0
1979-03-01 00:58:42.950 ,5,0,0.,12.0,0.,12.0,0.,12.0,0.,12.0
1979-03-01 00:58:54.950 ,5,0,0.,12.0,0.,12.0,0.,12.0,0.,12.0
1979-03-01 00:59:06.950 ,6,0,0.,12.0,0.,12.0,0.,12.0,0.,12.0
1979-03-01 00:59:18.950 ,6,0,0.,12.0,0.,12.0,0.,12.0,0.,12.0
1979-03-01 00:59:30.950 ,7,0,0.,12.0,0.,12.0,0.,12.0,0.,12.0
1979-03-01 00:59:42.950 ,7,0,0.,12.0,0.,12.0,0.,12.0,0.,12.0
1979-03-01 00:59:54.950 ,7,0,0.,12.0,0.,12.0,0.,12.0,0.,12.0
1979-03-01 01:00:06.950 ,7,0,0.,12.0,0.,12.0,0.,12.0,0.,12.0
1979-03-01 01:00:18.950 ,6,0,0.,12.0,0.,12.0,0.,12.0,0.,12.0
1979-03-01 01:00:30.950 ,6,0,0.,12.0,0.,12.0,0.,12.0,0.,12.0
1979-03-01 01:00:42.950 ,5,0,0.,12.0,0.,12.0,0.,12.0,0.,12.0
1979-03-01 01:00:54.950 ,5,0,0.,12.0,0.,12.0,0.,12.0,0.,12.0
1979-03-01 01:01:06.950 ,4,0,0.,12.0,0.,12.0,0.,12.0,0.,12.0
1979-03-01 01:01:18.950 ,4,0,0.,12.0,0.,12.0,0.,12.0,0.,12.0
1979-03-01 01:01:30.950 ,3,0,0.,12.0,0.,12.0,0.,12.0,0.,12.0
1979-03-01 01:01:42.950 ,3,0,0.,12.0,0.,12.0,0.,12.0,0.,12.0
1979-03-01 01:01:54.950 ,2,0,0.,12.0,0.,12.0,0.,12.0,0.,12.0
1979-03-01 01:02:06.950 ,2,0,0.,12.0,0.,12.0,0.,12.0,0.,12.0
1979-03-01 01:02:18.950 ,1,0,0.,12.0,0.,12.0,0.,12.0,0.,12.0
1979-03-01 01:02:30.950 ,1,0,0.,12.0,0.,12.0,0.,12.0,0.,12.0
1979-03-01 01:02:42.950 ,0,0,0.,12.0,0.,12.0,0.,12.0,0.,12.0
1979-03-01 01:02:54.950 ,0,0,0.,12.0,0.,12.0,0.,12.0,0.,12.0
1979-03-01 01:03:06.950 ,0,0,0.,12.0,0.,12.0,0.,12.0,0.,12.0
1979-03-01 01:03:18.950 ,0,0,0.,12.0,0.,12.0,0.,12.0,0.,12.0
1979-03-01 01:03:30.950 ,1,0,0.,12.0,0.,12.0,0.,12.0,0.,12.0
1979-03-01 01:03:42.950 ,1,0,0.,12.0,0.,12.0,0.,12.0,0.,12.0
1979-03-01 01:03:54.950 ,2,0,0.,12.0,0.,12.0,0.,12.0,0.,12.0
1979-03-01 01:04:06.950 ,2,0,0.,12.0,0.,12.0,0.,12.0,0.,12.0
1979-03-01 01:04:18.950 ,3,0,0.,12.0,0.,12.0,0.,12.0,0.,12.0
1979-03-01 01:04:30.950 ,3,0,0.,12.0,0.,12.0,0.,12.0,0.,12.0
1979-03-01 01:04:42.950 ,4,0,0.,12.0,0.,12.0,0.,12.0,0.,12.0
1979-03-01 01:04:54.950 ,4,0,0.,12.0,0.,12.0,0.,12.0,0.,12.0
1979-03-01 01:05:06.950 ,5,0,0.,12.0,0.,12.0,0.,12.0,0.,12.0
1979-03-01 01:05:18.950 ,5,0,0.,12.0,0.,12.0,0.,12.0,0.,12.0
1979-03-01 01:05:30.950 ,6,0,0.,12.0,0.,12.0,0.,12.0,0.,12.0
1979-03-01 01:05:42.950 ,6,0,0.,12.0,0.,12.0,0.,12.0,0.,12.0
1979-03-01 01:05:54.950 ,7,0,0.,12.0,0.,12.0,0.,12.0,0.,12.0
1979-03-01 01:06:06.950 ,7,0,0.,12.0,0.,12.0,0.,12.0,0.,12.0
1979-03-01 01:06:18.950 ,7,0,0.,12.0,0.,12.0,0.,12.0,0.,12.0
1979-03-01 01:06:30.950 ,7,0,0.,12.0,0.,12.0,0.,12.0,0.,12.0
1979-03-01 01:06:42.950 ,6,0,0.,12.0,0.,12.0,0.,12.0,0.,12.0
1979-03-01 01:06:54.950 ,6,0,0.,12.0,0.,12.0,0.,12.0,0.,12.0
1979-03-01 01:07:06.950 ,5,0,0.,12.0,0.,12.0,0.,12.0,0.,12.0
1979-03-01 01:07:18.950 ,5,0,0.,12.0,0.,12.0,0.,12.0,0.,12.0
1979-03-01 01:07:30.950 ,4,0,0.,12.0,0.,12.0,0.,12.0,0.,12.0
1979-03-01 01:07:42.950 ,4,0,0.,12.0,0.,12.0,0.,12.0,0.,12.0
1979-03-01 01:07:54.950 ,3,0,0.,12.0,0.,12.0,0.,12.0,0.,12.0
1979-03-01 01:08:06.950 ,3,0,0.,12.0,0.,12.0,0.,12.0,0.,12.0
1979-03-01 01:08:18.950 ,2,0,0.,12.0,0.,12.0,0.,12.0,0.,12.0
1979-03-01 01:08:30.950 ,2,0,0.,12.0,0.,12.0,0.,12.0,0.,12.0
1979-03-01 01:08:42.950 ,1,0,0.,12.0,0.,12.0,0.,12.0,0.,12.0
1979-03-01 01:08:54.950 ,1,0,0.,12.0,0.,12.0,0.,12.0,0.,12.0
1979-03-01 01:09:06.950 ,0,0,0.,12.0,0.,12.0,0.,12.0,0.,12.0
1979-03-01 01:09:18.950 ,0,0,1.,12.0,0.,12.0,0.,12.0,0.,12.0
1979-03-01 01:09:30.950 ,0,0,0.,12.0,0.,12.0,0.,12.0,0.,12.0
1979-03-01 01:09:42.950 ,0,0,0.,12.0,0.,12.0,0.,12.0,0.,12.0
1979-03-01 01:09:54.950 ,1,0,0.,12.0,0.,12.0,0.,12.0,0.,12.0
1979-03-01 01:10:06.950 ,1,0,0.,12.0,0.,12.0,0.,12.0,0.,12.0
1979-03-01 01:10:18.950 ,2,0,0.,12.0,0.,12.0,0.,12.0,0.,12.0
1979-03-01 01:10:30.950 ,2,0,0.,12.0,0.,12.0,0.,12.0,0.,12.0
1979-03-01 01:10:42.950 ,3,0,0.,12.0,0.,12.0,0.,12.0,0.,12.0
1979-03-01 01:10:54.950 ,3,0,0.,12.0,0.,12.0,0.,12.0,0.,12.0
1979-03-01 01:11:06.950 ,4,0,0.,12.0,0.,12.0,0.,12.0,0.,12.0
1979-03-01 01:11:18.950 ,4,0,0.,12.0,0.,12.0,0.,12.0,0.,12.0
1979-03-01 01:11:30.950 ,5,0,0.,12.0,0.,12.0,0.,12.0,0.,12.0
1979-03-01 01:11:42.950 ,5,0,0.,12.0,0.,12.0,0.,12.0,0.,12.0
1979-03-01 01:11:54.950 ,6,0,0.,12.0,0.,12.0,0.,12.0,0.,12.0
1979-03-01 01:12:06.950 ,6,0,0.,12.0,0.,12.0,0.,12.0,0.,12.0
1979-03-01 01:12:18.950 ,7,0,0.,12.0,0.,12.0,0.,12.0,0.,12.0
1979-03-01 01:12:30.950 ,7,0,0.,12.0,0.,12.0,0.,12.0,0.,12.0
1979-03-01 01:12:42.950 ,7,0,0.,12.0,0.,12.0,0.,12.0,0.,12.0
1979-03-01 01:12:54.950 ,7,0,0.,12.0,0.,12.0,0.,12.0,0.,12.0
1979-03-01 01:13:06.950 ,6,0,0.,12.0,0.,12.0,0.,12.0,0.,12.0
1979-03-01 01:13:18.950 ,6,0,0.,12.0,0.,12.0,0.,12.0,0.,12.0
1979-03-01 01:13:30.950 ,5,0,0.,12.0,0.,12.0,0.,12.0,0.,12.0
1979-03-01 01:13:42.950 ,5,0,0.,12.0,0.,12.0,0.,12.0,0.,12.0
1979-03-01 01:13:54.950 ,4,0,0.,12.0,0.,12.0,0.,12.0,0.,12.0
1979-03-01 01:14:06.950 ,4,0,0.,12.0,0.,12.0,0.,12.0,0.,12.0
1979-03-01 01:14:18.950 ,3,0,0.,12.0,0.,12.0,0.,12.0,0.,12.0
1979-03-01 01:14:30.950 ,3,0,0.,12.0,0.,12.0,0.,12.0,0.,12.0
1979-03-01 01:14:42.950 ,2,0,0.,12.0,0.,12.0,0.,12.0,0.,12.0
1979-03-01 01:14:54.950 ,2,0,0.,12.0,0.,12.0,0.,12.0,0.,12.0
1979-03-01 01:15:06.950 ,1,0,0.,12.0,0.,12.0,0.,12.0,0.,12.0
1979-03-01 01:15:18.950 ,1,0,0.,12.0,0.,12.0,0.,12.0,0.,12.0
1979-03-01 01:15:30.950 ,0,0,0.,12.0,0.,12.0,0.,12.0,0.,12.0
1979-03-01 01:15:42.950 ,0,0,0.,12.0,0.,12.0,0.,12.0,0.,12.0
1979-03-01 01:15:54.950 ,0,0,0.,12.0,0.,12.0,0.,12.0,0.,12.0
1979-03-01 01:16:06.950 ,0,0,0.,12.0,0.,12.0,0.,12.0,0.,12.0
1979-03-01 01:16:18.950 ,1,0,0.,12.0,0.,12.0,0.,12.0,0.,12.0
1979-03-01 01:16:30.950 ,1,0,0.,12.0,0.,12.0,0.,12.0,0.,12.0
1979-03-01 01:16:42.950 ,2,0,0.,12.0,0.,12.0,0.,12.0,0.,12.0
1979-03-01 01:16:54.950 ,2,0,0.,12.0,0.,12.0,0.,12.0,0.,12.0
1979-03-01 01:17:06.950 ,3,0,0.,12.0,0.,12.0,0.,12.0,0.,12.0
1979-03-01 01:17:18.950 ,3,0,0.,12.0,0.,12.0,0.,12.0,0.,12.0
1979-03-01 01:17:30.950 ,4,0,0.,12.0,0.,12.0,0.,12.0,0.,12.0
1979-03-01 01:17:42.950 ,4,0,0.,12.0,0.,12.0,0.,12.0,0.,12.0
1979-03-01 01:17:54.950 ,5,0,0.,12.0,0.,12.0,0.,12.0,0.,12.0
1979-03-01 01:18:06.950 ,5,0,0.,12.0,0.,12.0,0.,12.0,0.,12.0
1979-03-01 01:18:18.950 ,6,0,0.,12.0,0.,12.0,0.,12.0,0.,12.0
1979-03-01 01:18:30.950 ,6,0,0.,12.0,0.,12.0,0.,12.0,0.,12.0
1979-03-01 01:18:42.950 ,7,0,0.,12.0,0.,12.0,0.,12.0,0.,12.0
1979-03-01 01:18:54.950 ,7,0,0.,12.0,0.,12.0,0.,12.0,0.,12.0